• In Belgium
  • List of Countries
  • For 7 days
  • Water Temperature
  • Satellite Maps
  • Weather Map
  • Weather Widgets
  • user-avatar
    Login

    Hourly Weather Dilbeek

    Today, 17 July, Tuesday

    Time Temperature Precipitation Wind Pressure Humidity
    00:00 +18°C° 0 mm 2 mps 756 mmHg 72%
    01:00 +18°C° 0 mm 2 mps 756 mmHg 72%
    02:00 +17°C° 0 mm 2 mps 756 mmHg 73%
    03:00 +17°C° 0 mm 2 mps 756 mmHg 73%
    04:00 +17°C° 0 mm 3 mps 756 mmHg 73%
    05:00 +18°C° 0 mm 3 mps 756 mmHg 73%
    06:00 +19°C° 0 mm 3 mps 756 mmHg 73%
    07:00 +20°C° 0 mm 4 mps 757 mmHg 68%
    08:00 +22°C° 0 mm 4 mps 757 mmHg 64%
    09:00 +23°C° 0 mm 4 mps 757 mmHg 59%
    10:00 +25°C° 0 mm 5 mps 757 mmHg 56%
    11:00 +26°C° 0 mm 5 mps 757 mmHg 53%
    12:00 +26°C° 0 mm 5 mps 757 mmHg 50%
    13:00 +26°C° 0 mm 5 mps 757 mmHg 49%
    14:00 +26°C° 0 mm 5 mps 757 mmHg 49%
    15:00 +26°C° 0 mm 5 mps 758 mmHg 48%
    16:00 +25°C° 0 mm 5 mps 758 mmHg 51%
    17:00 +23°C° 0 mm 4 mps 758 mmHg 54%
    18:00 +22°C° 0 mm 4 mps 758 mmHg 57%
    19:00 +20°C° 0 mm 3 mps 758 mmHg 62%
    20:00 +19°C° 0 mm 3 mps 758 mmHg 68%
    21:00 +17°C° 0 mm 2 mps 759 mmHg 74%
    22:00 +16°C° 0 mm 2 mps 759 mmHg 77%
    23:00 +15°C° 0 mm 2 mps 759 mmHg 81%

    Tomorrow, 18 July, Wednesday

    Time Temperature Precipitation Wind Pressure Humidity
    00:00 +14°C° 0 mm 2 mps 759 mmHg 84%
    01:00 +14°C° 0 mm 2 mps 759 mmHg 86%
    02:00 +13°C° 0 mm 2 mps 759 mmHg 87%
    03:00 +13°C° 0 mm 2 mps 759 mmHg 89%
    04:00 +14°C° 0 mm 2 mps 759 mmHg 85%
    05:00 +15°C° 0 mm 2 mps 759 mmHg 82%
    06:00 +16°C° 0 mm 2 mps 759 mmHg 78%
    07:00 +18°C° 0 mm 2 mps 760 mmHg 72%
    08:00 +20°C° 0 mm 2 mps 760 mmHg 65%
    09:00 +21°C° 0 mm 2 mps 760 mmHg 59%
    10:00 +24°C° 0 mm 2 mps 760 mmHg 55%
    11:00 +25°C° 0 mm 2 mps 760 mmHg 52%
    12:00 +26°C° 0 mm 2 mps 759 mmHg 48%
    13:00 +25°C° 0 mm 2 mps 759 mmHg 49%
    14:00 +25°C° 0 mm 2 mps 759 mmHg 49%
    15:00 +25°C° 0 mm 2 mps 759 mmHg 50%
    16:00 +25°C° 0 mm 2 mps 759 mmHg 51%
    17:00 +25°C° 0 mm 2 mps 759 mmHg 53%
    18:00 +24°C° 0 mm 2 mps 759 mmHg 55%
    19:00 +23°C° 0 mm 2 mps 760 mmHg 58%
    20:00 +20°C° 0 mm 2 mps 760 mmHg 61%
    21:00 +19°C° 0 mm 2 mps 760 mmHg 63%
    22:00 +18°C° 0 mm 2 mps 760 mmHg 64%
    23:00 +18°C° 0 mm 2 mps 760 mmHg 65%

    Day after tomorrow, 19 July, Thursday

    Time Temperature Precipitation Wind Pressure Humidity
    00:00 +17°C° 0 mm 2 mps 760 mmHg 66%
    01:00 +17°C° 0 mm 2 mps 760 mmHg 68%
    02:00 +16°C° 0 mm 2 mps 760 mmHg 70%
    03:00 +16°C° 0 mm 2 mps 760 mmHg 72%
    04:00 +17°C° 0 mm 2 mps 760 mmHg 71%
    05:00 +17°C° 0 mm 2 mps 760 mmHg 70%
    06:00 +18°C° 0 mm 2 mps 760 mmHg 69%
    07:00 +20°C° 0 mm 2 mps 760 mmHg 64%
    08:00 +23°C° 0 mm 2 mps 760 mmHg 58%
    09:00 +25°C° 0 mm 2 mps 760 mmHg 52%
    10:00 +26°C° 0 mm 2 mps 760 mmHg 49%
    11:00 +26°C° 0 mm 2 mps 760 mmHg 45%
    12:00 +27°C° 0 mm 2 mps 760 mmHg 42%
    13:00 +27°C° 0 mm 2 mps 760 mmHg 43%
    14:00 +27°C° 0 mm 2 mps 759 mmHg 43%
    15:00 +27°C° 0 mm 2 mps 759 mmHg 44%
    16:00 +27°C° 0 mm 3 mps 759 mmHg 46%
    17:00 +26°C° 0 mm 3 mps 759 mmHg 48%
    18:00 +26°C° 0 mm 3 mps 759 mmHg 50%
    19:00 +24°C° 0 mm 3 mps 759 mmHg 50%
    20:00 +21°C° 0 mm 3 mps 759 mmHg 50%
    21:00 +20°C° 0 mm 3 mps 759 mmHg 50%
    22:00 +19°C° 0 mm 3 mps 759 mmHg 53%
    23:00 +18°C° 0 mm 3 mps 759 mmHg 55%

    20 July, Friday

    Time Temperature Precipitation Wind Pressure Humidity
    00:00 +17°C° 0 mm 3 mps 759 mmHg 58%
    01:00 +17°C° 0 mm 3 mps 759 mmHg 63%
    02:00 +16°C° 0 mm 3 mps 759 mmHg 69%
    03:00 +15°C° 0 mm 2 mps 758 mmHg 75%
    04:00 +16°C° 0 mm 3 mps 758 mmHg 74%
    05:00 +17°C° 0 mm 3 mps 758 mmHg 72%
    06:00 +18°C° 0 mm 3 mps 758 mmHg 71%
    07:00 +20°C° 0 mm 3 mps 758 mmHg 66%
    08:00 +22°C° 0 mm 3 mps 758 mmHg 60%
    09:00 +25°C° 0 mm 3 mps 758 mmHg 55%
    10:00 +26°C° 0 mm 3 mps 758 mmHg 51%
    11:00 +27°C° 0 mm 3 mps 757 mmHg 48%
    12:00 +28°C° 0 mm 3 mps 757 mmHg 44%
    13:00 +28°C° 0.1 mm 3 mps 757 mmHg 45%
    14:00 +28°C° 0.1 mm 3 mps 757 mmHg 45%
    15:00 +28°C° 0.1 mm 3 mps 756 mmHg 46%
    16:00 +27°C° 0.2 mm 3 mps 756 mmHg 49%
    17:00 +26°C° 0.2 mm 3 mps 756 mmHg 53%
    18:00 +25°C° 0.2 mm 2 mps 756 mmHg 56%
    19:00 +24°C° 0.1 mm 3 mps 756 mmHg 56%
    20:00 +22°C° 0.2 mm 3 mps 757 mmHg 56%
    21:00 +21°C° 0.2 mm 3 mps 757 mmHg 56%
    22:00 +21°C° 0 mm 3 mps 757 mmHg 57%
    23:00 +20°C° 0 mm 3 mps 757 mmHg 59%

    21 July, Saturday

    Time Temperature Precipitation Wind Pressure Humidity
    00:00 +19°C° 0 mm 3 mps 757 mmHg 60%
    01:00 +19°C° 0 mm 3 mps 757 mmHg 65%
    02:00 +18°C° 0 mm 3 mps 757 mmHg 69%
    03:00 +17°C° 0 mm 3 mps 757 mmHg 74%
    04:00 +17°C° 0 mm 3 mps 757 mmHg 73%
    05:00 +18°C° 0 mm 3 mps 757 mmHg 71%
    06:00 +18°C° 0 mm 3 mps 757 mmHg 70%
    07:00 +20°C° 0 mm 3 mps 758 mmHg 63%
    08:00 +22°C° 0 mm 3 mps 758 mmHg 56%
    09:00 +25°C° 0 mm 3 mps 758 mmHg 49%
    10:00 +26°C° 0 mm 4 mps 758 mmHg 45%
    11:00 +27°C° 0 mm 4 mps 758 mmHg 41%
    12:00 +28°C° 0 mm 4 mps 758 mmHg 37%
    13:00 +28°C° 0 mm 4 mps 758 mmHg 36%
    14:00 +29°C° 0 mm 4 mps 758 mmHg 36%
    15:00 +29°C° 0 mm 5 mps 758 mmHg 36%
    16:00 +27°C° 0 mm 4 mps 758 mmHg 40%
    17:00 +26°C° 0 mm 4 mps 758 mmHg 44%
    18:00 +25°C° 0 mm 4 mps 758 mmHg 48%
    19:00 +22°C° 0 mm 4 mps 759 mmHg 52%
    20:00 +21°C° 0 mm 3 mps 759 mmHg 56%
    21:00 +19°C° 0 mm 2 mps 759 mmHg 61%
    22:00 +18°C° 0 mm 2 mps 759 mmHg 62%
    23:00 +19°C° 0 mm 1 mps 760 mmHg 63%

    22 July, Sunday

    Time Temperature Precipitation Wind Pressure Humidity
    00:00 +19°C° 0 mm 1 mps 760 mmHg 64%
    01:00 +18°C° 0 mm 1 mps 760 mmHg 66%
    02:00 +18°C° 0 mm 1 mps 759 mmHg 68%
    03:00 +16°C° 0 mm 1 mps 759 mmHg 70%
    04:00 +18°C° 0 mm 1 mps 759 mmHg 68%
    05:00 +19°C° 0 mm 1 mps 759 mmHg 66%
    06:00 +19°C° 0 mm 2 mps 760 mmHg 64%
    07:00 +21°C° 0 mm 2 mps 760 mmHg 60%
    08:00 +24°C° 0 mm 2 mps 759 mmHg 56%
    09:00 +25°C° 0 mm 3 mps 759 mmHg 52%
    10:00 +26°C° 0 mm 3 mps 759 mmHg 50%
    11:00 +27°C° 0 mm 3 mps 759 mmHg 48%
    12:00 +28°C° 0 mm 4 mps 759 mmHg 46%
    13:00 +28°C° 0 mm 4 mps 759 mmHg 47%
    14:00 +27°C° 0 mm 4 mps 759 mmHg 48%
    15:00 +27°C° 0 mm 3 mps 759 mmHg 49%
    16:00 +27°C° 0 mm 3 mps 759 mmHg 52%
    17:00 +26°C° 0 mm 3 mps 759 mmHg 54%
    18:00 +25°C° 0 mm 3 mps 759 mmHg 57%
    19:00 +24°C° 0 mm 2 mps 759 mmHg 62%
    20:00 +21°C° 0 mm 2 mps 759 mmHg 67%
    21:00 +20°C° 0 mm 1 mps 760 mmHg 73%
    22:00 +19°C° 0 mm 1 mps 760 mmHg 75%
    23:00 +19°C° 0 mm 1 mps 760 mmHg 77%
    Show more